Tracking 29777 objects as of 4-Oct-2024
HD Live streaming from Space Station
objects crossing your sky now

STARLINK-1979

Track STARLINK-1979 now!
10-day predictions
STARLINK-1979 is classified as:


NORAD ID: 47577
Int'l Code: 2021-009AF
Perigee: 552.9 km
Apogee: 555.7 km
Inclination: 53.1 °
Period: 95.6 minutes
Semi major axis: 6925 km
RCS: Unknown
Launch date: February 4, 2021
Source: United States (US)
Launch site: AIR FORCE EASTERN TEST RANGE (AFETR)
Your satellite tracking list
Your tracking list is empty




NASA's NSSDC Master Catalog

Two Line Element Set (TLE):
1 47577U 21009AF  24277.50781779  .00050565  00000-0  33887-2 0  9990
2 47577  53.0531 200.7863 0002001  93.0716 267.0501 15.06405709202769
Source of the keplerian elements: AFSPC